Change the Weather History Date:

Wednesday, October 10, 2012

  Actual Average Record
Temperature  
Mean Temperature 55 °F -  
Max Temperature 64 °F 58 °F 71 °F (1999)
Min Temperature 46 °F 38 °F 30 °F (2013)
Degree Days  
Heating Degree Days 10    
Growing Degree Days 5 (Base 50)    
Moisture  
Dew Point 41 °F    
Average Humidity 59    
Maximum Humidity 82    
Minimum Humidity 25    
Precipitation  
Precipitation 0.00 in 0.06 in - ()
Sea Level Pressure  
Sea Level Pressure 30.11 in    
Wind  
Wind Speed 8 mph ()    
Max Wind Speed 24 mph    
Max Gust Speed -    
Visibility 6.2 miles    
Events Rain , Thunderstorm    
Averages and records for this station are not official NWS values.
T = Trace of Precipitation, MM = Missing Value Source: Averaged Metar Reports

Daily Weather History Graph

Daily Weather History Graph

Search for Another Location

Airport or City:

Trip Planner

Search our weather history database for the weather conditions in past years. The results will help you decide how hot, cold, wet, or windy it might be!

Date:

Astronomy

Oct. 10, 2012 Rise Set
Actual Time 6:10 AM EEST 5:35 PM EEST
Civil Twilight 5:44 AM EEST 6:02 PM EEST
Nautical Twilight 5:13 AM EEST 6:32 PM EEST
Astronomical Twilight 4:42 AM EEST 7:03 PM EEST
Moon 12:28 AM EEST (10/10) 2:21 PM EEST (10/10)
Length of Visible Light 12h 17m
Length of Day
11h 24m
Waning Crescent, 30% of the Moon is Illuminated
Oct 10
Waning Crescent
Oct 15
New
Oct 22
First Quarter
Oct 29
Full
Nov 7
Last Quarter

Hourly Weather History & Observations

Time (EEST) Temp. Windchill Dew Point Humidity Pressure Visibility Wind Dir Wind Speed Gust Speed Precip Events Conditions
12:50 AM 55.4 °F - 37.4 °F 51% 30.06 in 6.2 mi SSE 6.9 mph - N/A   Mostly Cloudy
1:50 AM 57.2 °F - 37.4 °F 48% 30.06 in 6.2 mi SSE 5.8 mph - N/A   Mostly Cloudy
2:50 AM 55.4 °F - 37.4 °F 51% 30.04 in 6.2 mi SSE 8.1 mph - N/A   Mostly Cloudy
3:00 AM 56 °F - 36 °F 36%  in 6 mi SSE 8.1 mph - -   Partly Cloudy
3:50 AM 55.4 °F - 37.4 °F 51% 30.06 in 6.2 mi SE 10.4 mph - N/A   Mostly Cloudy
4:50 AM 55.4 °F - 37.4 °F 51% 30.06 in 6.2 mi SSE 11.5 mph - N/A   Mostly Cloudy
5:50 AM 55.4 °F - 37.4 °F 51% 30.06 in 6.2 mi SSE 10.4 mph - N/A   Mostly Cloudy
6:50 AM 55.4 °F - 37.4 °F 51% 30.06 in 6.2 mi SE 11.5 mph - N/A   Mostly Cloudy
7:50 AM 59.0 °F - 37.4 °F 45% 30.09 in 6.2 mi SE 11.5 mph - N/A   Mostly Cloudy
8:50 AM 62.6 °F - 35.6 °F 37% 30.09 in 6.2 mi SE 10.4 mph - N/A   Scattered Clouds
9:00 AM 62 °F - 35 °F 25%  in 6 mi SE 10.4 mph - -   Partly Cloudy
9:50 AM 64.4 °F - 33.8 °F 32% 30.12 in 6.2 mi South 5.8 mph - N/A   Scattered Clouds
10:50 AM 59.0 °F - 48.2 °F 67% 30.12 in 6.2 mi WNW 21.9 mph - N/A   Mostly Cloudy
11:50 AM 57.2 °F - 50.0 °F 77% 30.15 in 6.2 mi West 24.2 mph - N/A Thunderstorm Thunderstorm
12:50 PM 57.2 °F - 46.4 °F 67% 30.12 in 6.2 mi NW 11.5 mph - N/A Rain , Thunderstorm Light Thunderstorms and Rain
1:50 PM 57.2 °F - 44.6 °F 63% 30.12 in 6.2 mi NNW 8.1 mph - N/A   Mostly Cloudy
2:50 PM 57.2 °F - 46.4 °F 67% 30.15 in 6.2 mi North 9.2 mph - N/A   Mostly Cloudy
3:00 PM 57 °F - 46 °F 57%  in 7 mi North 9.2 mph - -   Partly Cloudy
3:50 PM 59.0 °F - 44.6 °F 59% 30.15 in 6.2 mi North 6.9 mph - N/A   Mostly Cloudy
4:50 PM 55.4 °F - 42.8 °F 63% 30.12 in 6.2 mi North 4.6 mph - N/A   Mostly Cloudy
5:50 PM 55.4 °F - 42.8 °F 63% 30.15 in 6.2 mi North 4.6 mph - N/A   Mostly Cloudy
6:50 PM 53.6 °F - 42.8 °F 67% 30.15 in 6.2 mi East 3.5 mph - N/A   Mostly Cloudy
7:50 PM 50.0 °F - 42.8 °F 76% 30.15 in 6.2 mi ESE 2.3 mph - N/A   Mostly Cloudy
8:50 PM 48.2 °F - 42.8 °F 82% 30.15 in 6.2 mi Variable 2.3 mph - N/A   Mostly Cloudy
9:00 PM 49 °F - 42 °F 68%  in 6 mi East 2.3 mph - -   Partly Cloudy
9:50 PM 48.2 °F - 41.0 °F 76% 30.15 in 6.2 mi East 3.5 mph - N/A   Mostly Cloudy
10:50 PM 46.4 °F 44.3 °F 39.2 °F 76% 30.15 in 6.2 mi East 4.6 mph - N/A   Scattered Clouds
11:50 PM 46.4 °F - 41.0 °F 81% 30.15 in 6.2 mi Variable 1.2 mph - N/A   Scattered Clouds